FW2639 Weather Reports


Display with metric or nautical units.
time (UTC)temp
F
wind
direction
speed
MPH
gust
MPH
rain 1hr
in
rain 24hr
in
rain mn
in
humidity
%
barometer
mb
20190817131904 82 0.0 0.0 0.00 0.00 0.00 28 1022.3
20190817130904 82 0.0 0.0 0.00 0.00 0.00 29 1022.3
20190817125904 81 0.0 0.0 0.00 0.00 0.00 29 1022.5
20190817124904 80 0.0 0.0 0.00 0.00 0.00 30 1022.6
20190817123903 80 0.0 0.0 0.00 0.00 0.00 29 1022.7
20190817122903 80 0.0 0.0 0.00 0.00 0.00 29 1022.9
20190817121905 80 0.0 0.0 0.00 0.00 0.00 29 1023.1
20190817120905 80 0.0 0.0 0.00 0.00 0.00 29 1023.2
20190817115906 81 0.0 0.0 0.00 0.00 0.00 29 1023.3
20190817114908 80 0.0 0.0 0.00 0.00 0.00 29 1023.3
20190817113904 80 0.0 0.0 0.00 0.00 0.00 29 1023.6
20190817112904 78 0.0 0.0 0.00 0.00 0.00 32 1023.5
20190817111904 78 0.0 0.0 0.00 0.00 0.00 32 1023.7
20190817110904 78 0.0 0.0 0.00 0.00 0.00 31 1023.8
20190817105904 79 0.0 0.0 0.00 0.00 0.00 30 1023.9
20190817104903 79 0.0 0.0 0.00 0.00 0.00 30 1023.8
20190817103904 79 0.0 0.0 0.00 0.00 0.00 31 1023.9
20190817102905 79 0.0 0.0 0.00 0.00 0.00 32 1024.0
20190817101904 79 0.0 0.0 0.00 0.00 0.00 33 1024.0
20190817100904 77 0.0 0.0 0.00 0.00 0.00 34 1024.2
20190817095904 77 0.0 0.0 0.00 0.00 0.00 34 1024.3
20190817094904 77 0.0 0.0 0.00 0.00 0.00 35 1024.3
20190817093904 78 0.0 0.0 0.00 0.00 0.00 35 1024.3
20190817092904 78 0.0 0.0 0.00 0.00 0.00 35 1024.5
20190817091904 77 0.0 0.0 0.00 0.00 0.00 36 1024.5
20190817090904 77 0.0 0.0 0.00 0.00 0.00 35 1024.4
20190817085903 78 0.0 0.0 0.00 0.00 0.00 35 1024.6
20190817084904 78 0.0 0.0 0.00 0.00 0.00 35 1024.5
20190817083904 78 0.0 0.0 0.00 0.00 0.00 36 1024.5
20190817082904 78 0.0 0.0 0.00 0.00 0.00 37 1024.7
20190817081904 77 0.0 0.0 0.00 0.00 0.00 38 1024.7
20190817080904 77 0.0 0.0 0.00 0.00 0.00 38 1024.7
20190817075904 77 0.0 0.0 0.00 0.00 0.00 40 1024.8
20190817074904 76 0.0 0.0 0.00 0.00 0.00 42 1024.9
20190817073904 75 0.0 0.0 0.00 0.00 0.00 42 1024.9
20190817072903 75 0.0 0.0 0.00 0.00 0.00 43 1024.9
20190817071903 75 0.0 0.0 0.00 0.00 0.00 44 1024.8
20190817070903 74 0.0 0.0 0.00 0.00 0.00 45 1024.9
20190817065903 74 0.0 0.0 0.00 0.00 0.00 47 1025.0
20190817064903 73 0.0 0.0 0.00 0.00 0.00 48 1024.9
20190817063903 72 0.0 0.0 0.00 0.00 0.00 49 1025.0
20190817062904 71 0.0 0.0 0.00 0.00 0.00 50 1025.1
20190817061904 71 0.0 0.0 0.00 0.00 0.00 51 1025.0
20190817060904 70 0.0 0.0 0.00 0.00 0.00 52 1024.9
20190817055904 69 0.0 0.0 0.00 0.00 0.00 53 1025.0
20190817054903 69 0.0 0.0 0.00 0.00 0.00 54 1025.0
20190817053903 67 0.0 0.0 0.00 0.00 0.00 56 1025.1
20190817052904 66 0.0 0.0 0.00 0.00 0.00 56 1025.0
20190817051904 65 0.0 0.0 0.00 0.00 0.00 58 1025.1
20190817050904 64 0.0 0.0 0.00 0.00 0.00 58 1025.1
20190817045905 63 0.0 0.0 0.00 0.00 0.00 58 1025.1
20190817044904 63 0.0 0.0 0.00 0.00 0.00 58 1025.2
20190817043904 63 0.0 0.0 0.00 0.00 0.00 58 1025.3
20190817042904 63 0.0 0.0 0.00 0.00 0.00 57 1025.2
20190817041904 63 0.0 0.0 0.00 0.00 0.00 57 1025.3
20190817040903 63 0.0 0.0 0.00 0.00 0.00 57 1025.2
20190817035903 63 0.0 0.0 0.00 0.00 0.00 56 1025.2
20190817034903 63 0.0 0.0 0.00 0.00 0.00 57 1025.2
20190817033903 63 0.0 0.0 0.00 0.00 0.00 57 1025.2
20190817032904 64 0.0 0.0 0.00 0.00 0.00 56 1025.2
20190817031904 64 0.0 0.0 0.00 0.00 0.00 56 1025.2
20190817030904 64 0.0 0.0 0.00 0.00 0.00 56 1025.1
20190817025904 64 0.0 0.0 0.00 0.00 0.00 56 1025.2
20190817024904 64 0.0 0.0 0.00 0.00 0.00 56 1025.2
20190817023904 64 0.0 0.0 0.00 0.00 0.00 55 1025.1
20190817022904 64 0.0 0.0 0.00 0.00 0.00 55 1025.2
20190817021904 64 0.0 0.0 0.00 0.00 0.00 55 1025.2
20190817020905 65 0.0 0.0 0.00 0.00 0.00 55 1025.2
20190817015904 65 0.0 0.0 0.00 0.00 0.00 54 1025.3
20190817014904 65 0.0 0.0 0.00 0.00 0.00 54 1025.3
20190817013903 66 0.0 0.0 0.00 0.00 0.00 54 1025.4
20190817012905 66 0.0 0.0 0.00 0.00 0.00 53 1025.3
20190817011905 66 0.0 0.0 0.00 0.00 0.00 54 1025.4
20190817010904 66 0.0 0.0 0.00 0.00 0.00 53 1025.4
20190817005903 66 0.0 0.0 0.00 0.00 0.00 53 1025.6
20190817004903 66 0.0 0.0 0.00 0.00 0.00 53 1025.5
20190817003904 65 0.0 0.0 0.00 0.00 0.00 54 1025.5
20190817002903 66 0.0 0.0 0.00 0.00 0.00 52 1025.4
20190817001904 67 0.0 0.0 0.00 0.00 0.00 52 1025.6
20190817000904 67 0.0 0.0 0.00 0.00 0.00 52 1025.6
20190816235904 67 0.0 0.0 0.00 0.00 0.00 52 1025.7
20190816234904 67 0.0 0.0 0.00 0.00 0.00 52 1025.7
20190816233905 67 0.0 0.0 0.00 0.00 0.00 53 1025.6
20190816232904 67 0.0 0.0 0.00 0.00 0.00 51 1025.6
20190816231904 67 0.0 0.0 0.00 0.00 0.00 51 1025.6
20190816230905 68 0.0 0.0 0.00 0.00 0.00 51 1025.5
20190816225904 68 0.0 0.0 0.00 0.00 0.00 51 1025.5
20190816224904 68 0.0 0.0 0.00 0.00 0.00 51 1025.6
20190816223904 68 0.0 0.0 0.00 0.00 0.00 50 1025.5
20190816222904 68 0.0 0.0 0.00 0.00 0.00 50 1025.4
20190816221905 68 0.0 0.0 0.00 0.00 0.00 50 1025.5
20190816220903 68 0.0 0.0 0.00 0.00 0.00 50 1025.4
20190816215904 68 0.0 0.0 0.00 0.00 0.00 50 1025.4
20190816214904 69 0.0 0.0 0.00 0.00 0.00 49 1025.6
20190816213904 69 0.0 0.0 0.00 0.00 0.00 49 1025.6
20190816212904 69 0.0 0.0 0.00 0.00 0.00 49 1025.5
20190816211904 69 0.0 0.0 0.00 0.00 0.00 48 1025.7
20190816210904 69 0.0 0.0 0.00 0.00 0.00 48 1025.7
20190816205903 70 0.0 0.0 0.00 0.00 0.00 48 1025.7
20190816204903 70 0.0 0.0 0.00 0.00 0.00 47 1025.7
20190816203904 71 0.0 0.0 0.00 0.00 0.00 46 1025.6
20190816202904 71 0.0 0.0 0.00 0.00 0.00 44 1025.6
20190816201904 72 0.0 0.0 0.00 0.00 0.00 44 1025.5
20190816200904 72 0.0 0.0 0.00 0.00 0.00 42 1025.5
20190816195904 72 0.0 0.0 0.00 0.00 0.00 42 1025.5
20190816194903 72 0.0 0.0 0.00 0.00 0.00 42 1025.4
20190816193903 73 0.0 0.0 0.00 0.00 0.00 41 1025.5
20190816192903 73 0.0 0.0 0.00 0.00 0.00 40 1025.5
20190816191904 73 0.0 0.0 0.00 0.00 0.00 39 1025.5
20190816190904 73 0.0 0.0 0.00 0.00 0.00 39 1025.4
20190816185904 74 0.0 0.0 0.00 0.00 0.00 39 1025.4
20190816184904 74 0.0 0.0 0.00 0.00 0.00 39 1025.4
20190816183903 74 0.0 0.0 0.00 0.00 0.00 38 1025.3
20190816182904 75 0.0 0.0 0.00 0.00 0.00 38 1025.2
20190816181904 75 0.0 0.0 0.00 0.00 0.00 37 1025.0
20190816180904 75 0.0 0.0 0.00 0.00 0.00 38 1024.9
20190816175903 75 0.0 0.0 0.00 0.00 0.00 37 1024.9
20190816174903 75 0.0 0.0 0.00 0.00 0.00 37 1024.8
20190816173904 76 0.0 0.0 0.00 0.00 0.00 36 1024.6
20190816172904 76 0.0 0.0 0.00 0.00 0.00 35 1024.6
20190816171904 76 0.0 0.0 0.00 0.00 0.00 35 1024.7
20190816170904 77 0.0 0.0 0.00 0.00 0.00 34 1024.6
20190816165904 77 0.0 0.0 0.00 0.00 0.00 33 1024.5
20190816164904 78 0.0 0.0 0.00 0.00 0.00 33 1024.4
20190816163904 79 0.0 0.0 0.00 0.00 0.00 33 1024.3
20190816162904 79 0.0 0.0 0.00 0.00 0.00 33 1024.3
20190816161904 79 0.0 0.0 0.00 0.00 0.00 32 1024.4
20190816160904 80 0.0 0.0 0.00 0.00 0.00 31 1024.4
20190816155903 81 0.0 0.0 0.00 0.00 0.00 31 1024.3
20190816154904 80 0.0 0.0 0.00 0.00 0.00 31 1024.3
20190816153904 81 0.0 0.0 0.00 0.00 0.00 31 1024.2
20190816152904 81 0.0 0.0 0.00 0.00 0.00 31 1024.2
20190816151904 80 0.0 0.0 0.00 0.00 0.00 34 1024.2
20190816150904 79 0.0 0.0 0.00 0.00 0.00 33 1024.2
20190816145903 81 0.0 0.0 0.00 0.00 0.00 31 1024.2
20190816144903 81 0.0 0.0 0.00 0.00 0.00 33 1024.2
20190816143904 81 0.0 0.0 0.00 0.00 0.00 33 1024.2
20190816142904 80 0.0 0.0 0.00 0.00 0.00 34 1024.1
20190816141904 80 0.0 0.0 0.00 0.00 0.00 34 1024.2
20190816140904 80 0.0 0.0 0.00 0.00 0.00 34 1024.1
20190816135904 79 0.0 0.0 0.00 0.00 0.00 36 1024.2
20190816134903 80 0.0 0.0 0.00 0.00 0.00 37 1024.2
20190816133904 78 0.0 0.0 0.00 0.00 0.00 38 1024.3
20190816132904 77 0.0 0.0 0.00 0.00 0.00 39 1024.4